{"data":{"norad_id":57975,"intl_designator":"2023-151M","name":"STARLINK-30503","alt_names":[],"object_type":"PAYLOAD","status":"ACTIVE","operator":null,"country":"US","launch_date":"2023-09-30","launch_site_code":"AFETR","launch_vehicle":null,"mission":null,"orbit_class":"UNKNOWN","rcs_meters":null,"size_class":null,"mass_kg":null,"dimensions":null,"purposes":["comms"],"wikipedia_slug":null,"has_3d_model":false,"image_url":null,"decayed_at":null,"tle_current":{"epoch":"2026-05-24T19:23:56.957568Z","epoch_age_seconds":91342,"freshness":"FRESH","line1":"1 57975U 23151M   26144.80829812  .00004484  00000+0  17228-3 0  9992","line2":"2 57975  42.9981 266.4442 0000499 108.6022 251.4884 15.27593627147402","mean_motion":15.27593627,"eccentricity":4.99e-5,"inclination_deg":42.9981,"raan_deg":266.4442,"arg_perigee_deg":108.6022,"mean_anomaly_deg":251.4884,"bstar":0.00017228,"rev_number":14740,"period_min":94.265907800884,"perigee_km":482.66592105261,"apogee_km":483.35066335278,"semimajor_km":6861.1452922027,"source":"CELESTRAK","updated_at":"2026-05-25T13:38:18.486979Z"}}}